WN8IZV Weather Reports


Display with metric or nautical units.
time (UTC)temp
F
wind
direction
speed
MPH
gust
MPH
rain 1hr
in
rain 24hr
in
rain mn
in
humidity
%
barometer
mb
20260902213028 97 15 1.0 7.0 0.00 0.00 0.00 77 1010.3
20260902211518 96 304 2.0 9.0 0.00 0.00 0.00 78 1010.2
20260902210022 98 202 2.0 6.0 0.00 0.00 0.00 78 1010.1
20260902204507 98 117 1.0 9.0 0.00 0.00 0.00 78 1010.4
20260902203002 99 151 2.0 10.0 0.00 0.00 0.00 79 1010.5
20260902201555 98 283 1.0 8.0 0.00 0.00 0.00 79 1010.7
20260902200055 97 95 1.0 5.0 0.00 0.00 0.00 79 1010.7
20260902194544 97 279 2.0 6.0 0.00 0.00 0.00 79 1011.0
20260902193038 98 233 3.0 9.0 0.00 0.00 0.00 80 1011.1
20260902191545 100 262 2.0 7.0 0.00 0.00 0.00 80 1011.5
20260902190025 99 135 3.0 9.0 0.00 0.00 0.00 80 1011.5
20260902184535 98 207 2.0 7.0 0.00 0.00 0.00 81 1011.5
20260902183015 98 212 3.0 11.0 0.00 0.00 0.00 81 1011.7
20260902181509 97 337 0.0 7.0 0.00 0.00 0.00 81 1012.0
20260902180005 96 257 1.0 9.0 0.00 0.00 0.00 81 1012.2
20260902174607 95 348 2.0 7.0 0.00 0.00 0.00 81 1012.3
20260902173056 97 311 3.0 8.0 0.00 0.00 0.00 82 1012.5
20260902171556 99 345 1.0 6.0 0.00 0.00 0.00 82 1012.7
20260902170046 98 299 2.0 6.0 0.00 0.00 0.00 82 1012.8
20260902164537 97 184 1.0 6.0 0.00 0.00 0.00 82 1013.0
20260902163031 97 21 1.0 5.0 0.00 0.00 0.00 82 1013.0
20260902161525 96 310 3.0 6.0 0.00 0.00 0.00 82 1013.3
20260902160019 96 359 1.0 5.0 0.00 0.00 0.00 82 1013.4
20260902154523 95 146 1.0 6.0 0.00 0.00 0.00 82 1013.4
20260902153014 94 198 1.0 10.0 0.00 0.00 0.00 82 1013.5
20260902151502 93 143 1.0 3.0 0.00 0.00 0.00 82 1013.5
20260902150055 91 255 1.0 5.0 0.00 0.00 0.00 81 1013.6
20260902144551 90 295 1.0 4.0 0.00 0.00 0.00 81 1013.6
20260902143044 88 269 0.0 3.0 0.00 0.00 0.00 81 1013.5
20260902141540 86 300 1.0 6.0 0.00 0.00 0.00 81 1013.4
20260902140037 85 168 1.0 3.0 0.00 0.00 0.00 80 1013.5
20260902134529 83 274 0.0 3.0 0.00 0.00 0.00 80 1013.7
20260902133026 83 323 0.0 3.0 0.00 0.00 0.00 80 1013.6
20260902131522 82 34 0.0 2.0 0.00 0.00 0.00 80 1013.5
20260902130016 80 18 0.0 2.0 0.00 0.00 0.00 79 1013.3
20260902124512 79 341 1.0 4.0 0.00 0.00 0.00 79 1013.5
20260902123008 78 255 0.0 1.0 0.00 0.00 0.00 79 1013.5
20260902121504 77 195 0.0 2.0 0.00 0.00 0.00 79 1013.5
20260902120002 76 318 0.0 1.0 0.00 0.00 0.00 78 1013.4
20260902114601 76 209 0.0 0.0 0.00 0.00 0.00 78 1013.4
20260902113059 76 35 0.0 0.0 0.00 0.00 0.00 78 1013.3
20260902111604 76 32 0.0 2.0 0.00 0.00 0.00 78 1013.6
20260902110057 76 327 0.0 1.0 0.00 0.00 0.00 78 1013.5
20260902104554 76 339 0.0 1.0 0.00 0.00 0.00 78 1013.4
20260902103051 77 343 0.0 2.0 0.00 0.00 0.00 78 1013.4
20260902101550 77 162 0.0 0.0 0.00 0.00 0.00 78 1013.2
20260902100101 77 213 0.0 0.0 0.00 0.00 0.00 78 1013.1
20260902094545 77 152 0.0 2.0 0.00 0.00 0.00 78 1013.0
20260902093043 78 176 0.0 1.0 0.00 0.00 0.00 78 1013.2
20260902091546 78 88 0.0 1.0 0.00 0.00 0.00 78 1013.1
20260902090039 78 222 0.0 3.0 0.00 0.00 0.00 78 1013.1
20260902084537 78 77 0.0 1.0 0.00 0.00 0.00 78 1012.9
20260902083036 78 172 0.0 2.0 0.00 0.00 0.00 78 1013.0
20260902081536 78 194 0.0 2.0 0.00 0.00 0.00 78 1013.0
20260902080031 77 181 0.0 0.0 0.00 0.00 0.00 78 1012.6
20260902074527 77 193 0.0 0.0 0.00 0.00 0.00 77 1012.9
20260902073025 78 195 0.0 0.0 0.00 0.00 0.00 77 1012.9
20260902071523 78 219 0.0 0.0 0.00 0.00 0.00 77 1012.9
20260902070021 78 191 0.0 1.0 0.00 0.00 0.00 77 1012.9
20260902064519 78 188 0.0 0.0 0.00 0.00 0.00 77 1012.9
20260902063030 77 186 0.0 0.0 0.00 0.00 0.00 77 1013.1
20260902061521 77 181 0.0 0.0 0.00 0.00 0.00 77 1013.2
20260902060009 77 180 0.0 0.0 0.00 0.00 0.00 77 1013.6
20260902054511 77 180 0.0 0.0 0.00 0.00 0.00 77 1013.7
20260902053004 77 205 0.0 0.0 0.00 0.00 0.00 77 1013.6
20260902051501 77 205 0.0 0.0 0.00 0.00 0.00 77 1013.8
20260902050106 77 205 0.0 0.0 0.00 0.00 0.00 77 1013.8
20260902044602 77 212 0.0 0.0 0.00 0.00 0.00 77 1013.8
20260902043054 77 212 0.0 0.0 0.00 0.00 0.00 77 1013.5
20260902041549 77 212 0.0 0.0 0.00 0.00 0.00 77 1013.6
20260902040046 78 212 0.0 0.0 0.00 0.00 0.00 77 1013.6
20260902034544 78 212 0.0 0.0 0.00 0.00 0.00 77 1013.6
20260902033045 79 212 0.0 0.0 0.00 0.00 0.00 77 1013.4
20260902031546 79 212 0.0 0.0 0.00 0.00 0.00 77 1013.4
20260902030038 80 282 0.0 0.0 0.00 0.00 0.00 77 1013.3
20260902024543 80 318 0.0 0.0 0.00 0.00 0.00 77 1013.4
20260902023034 81 317 0.0 0.0 0.00 0.00 0.00 77 1013.4
20260902021531 82 317 0.0 0.0 0.00 0.00 0.00 78 1013.3
20260902020029 82 224 0.0 2.0 0.00 0.00 0.00 78 1013.3
20260902014529 83 274 0.0 2.0 0.00 0.00 0.00 78 1013.3
20260902013027 83 297 0.0 2.0 0.00 0.00 0.00 78 1013.3
20260902011532 83 276 0.0 2.0 0.00 0.00 0.00 78 1013.1
20260902010022 84 158 0.0 3.0 0.00 0.00 0.00 78 1013.0
20260902004521 84 278 0.0 1.0 0.00 0.00 0.00 78 1012.8
20260902003025 84 100 0.0 6.0 0.00 0.00 0.00 78 1012.5
20260902001516 85 157 0.0 3.0 0.00 0.00 0.00 78 1012.5
20260902000013 86 142 0.0 1.0 0.00 0.00 0.00 79 1012.4
20260901234510 86 218 1.0 5.0 0.00 0.00 0.00 79 1012.4
20260901233007 88 202 0.0 6.0 0.00 0.00 0.00 79 1012.4
20260901231506 90 160 1.0 8.0 0.00 0.00 0.00 79 1012.3
20260901230003 91 223 0.0 2.0 0.00 0.00 0.00 80 1012.3
20260901224501 91 157 1.0 4.0 0.00 0.00 0.00 80 1012.3
20260901223107 92 278 0.0 4.0 0.00 0.00 0.00 80 1012.3
20260901221557 93 220 2.0 6.0 0.00 0.00 0.00 80 1012.2
20260901220123 93 285 0.0 5.0 0.00 0.00 0.00 81 1012.2
20260901214553 93 352 2.0 6.0 0.00 0.00 0.00 81 1012.1